Denton, TX

9:08 AM CST on January 18, 2018 (GMT -0600)
Denton Municipal

Weather History for KDTO - July, 2013

Change the Weather History Date:

Saturday, July 27, 2013

  Actual Average Record
Temperature  
Mean Temperature 81 °F -  
Max Temperature 90 °F 96 °F 105 °F (1998)
Min Temperature 72 °F 72 °F 64 °F (2004)
Cooling Degree Days 16    
Growing Degree Days 31 (Base 50)    
Moisture  
Dew Point 66 °F    
Average Humidity 66    
Maximum Humidity 84    
Minimum Humidity 39    
Precipitation  
Precipitation 0.00 in - - ()
Sea Level Pressure  
Sea Level Pressure 29.97 in    
Wind  
Wind Speed 10 mph (NE)    
Max Wind Speed 15 mph    
Max Gust Speed 21 mph    
Visibility 10 miles    
Events      
Averages and records for this station are not official NWS values.
T = Trace of Precipitation, MM = Missing Value Source: NWS Daily Summary

Daily Weather History Graph

Daily Weather History Graph

Search for Another Location

Airport or City:

Trip Planner

Search our weather history database for the weather conditions in past years. The results will help you decide how hot, cold, wet, or windy it might be!

Date:

Astronomy

Jul. 27, 2013 Rise Set
Actual Time 6:38 AM CDT 8:31 PM CDT
Civil Twilight 6:11 AM CDT 8:58 PM CDT
Nautical Twilight 5:38 AM CDT 9:32 PM CDT
Astronomical Twilight 5:02 AM CDT 10:07 PM CDT
Moon 11:42 PM CDT (7/27) 11:59 AM CDT (7/27)
Length of Visible Light 14h 47m
Length of Day
13h 53m
Waning Gibbous, 70% of the Moon is Illuminated
Jul 27
Waning Gibbous
Jul 29
Last Quarter
Aug 6
New
Aug 14
First Quarter
Aug 20
Full

Hourly Weather History & Observations

Time (CDT) Temp. Heat Index Dew Point Humidity Pressure Visibility Wind Dir Wind Speed Gust Speed Precip Events Conditions
12:53 AM 75.9 °F - 70.0 °F 82% 29.97 in 10.0 mi NNE 11.5 mph - N/A   Overcast
1:19 AM 75.2 °F - 69.8 °F 83% 30.00 in 10.0 mi North 12.7 mph - N/A   Overcast
1:48 AM 75.2 °F - 68.0 °F 78% 29.99 in 10.0 mi North 9.2 mph - N/A   Overcast
1:53 AM 73.9 °F - 68.0 °F 82% 29.96 in 10.0 mi North 11.5 mph - N/A   Overcast
2:53 AM 73.0 °F - 68.0 °F 84% 29.96 in 10.0 mi North 8.1 mph - N/A   Overcast
3:53 AM 73.0 °F - 66.9 °F 81% 29.96 in 10.0 mi North 9.2 mph - N/A   Overcast
4:53 AM 73.0 °F - 66.9 °F 81% 29.97 in 10.0 mi North 6.9 mph - N/A   Overcast
5:53 AM 72.0 °F - 66.9 °F 84% 29.98 in 10.0 mi North 11.5 mph - N/A   Overcast
6:53 AM 72.0 °F - 66.0 °F 81% 29.98 in 10.0 mi NNE 9.2 mph - N/A   Overcast
7:53 AM 73.0 °F - 64.9 °F 76% 30.01 in 10.0 mi NE 12.7 mph - N/A   Overcast
8:53 AM 73.9 °F - 64.0 °F 71% 30.01 in 10.0 mi NE 12.7 mph 20.7 mph N/A   Overcast
9:53 AM 77.0 °F - 64.0 °F 64% 30.02 in 10.0 mi ENE 15.0 mph - N/A   Overcast
10:53 AM 78.1 °F - 64.9 °F 64% 30.02 in 10.0 mi NE 11.5 mph - N/A   Mostly Cloudy
11:23 AM 80.6 °F 82.7 °F 66.2 °F 61% 30.04 in 10.0 mi NE 8.1 mph - N/A   Scattered Clouds
11:53 AM 81.0 °F 82.7 °F 64.9 °F 58% 30.02 in 10.0 mi ENE 9.2 mph - N/A   Partly Cloudy
12:53 PM 82.9 °F 85.0 °F 66.0 °F 56% 30.00 in 10.0 mi NNE 9.2 mph - N/A   Partly Cloudy
1:53 PM 86.0 °F 88.2 °F 66.0 °F 51% 29.99 in 10.0 mi Variable 5.8 mph - N/A   Clear
2:53 PM 87.1 °F 88.9 °F 64.9 °F 48% 29.97 in 10.0 mi Variable 3.5 mph - N/A   Partly Cloudy
3:53 PM 88.0 °F 89.3 °F 64.0 °F 45% 29.95 in 10.0 mi Variable 3.5 mph - N/A   Clear
4:53 PM 90.0 °F 91.3 °F 64.0 °F 42% 29.93 in 10.0 mi NE 9.2 mph - N/A   Clear
5:53 PM 89.1 °F 89.0 °F 61.0 °F 39% 29.91 in 10.0 mi ENE 8.1 mph - N/A   Clear
6:53 PM 88.0 °F 87.6 °F 60.1 °F 39% 29.90 in 10.0 mi NE 10.4 mph - N/A   Clear
7:53 PM 84.9 °F 85.0 °F 61.0 °F 44% 29.89 in 10.0 mi ENE 8.1 mph - N/A   Clear
8:53 PM 81.0 °F 83.3 °F 66.9 °F 62% 29.90 in 10.0 mi NE 6.9 mph - N/A   Clear
9:53 PM 79.0 °F - 68.0 °F 69% 29.93 in 10.0 mi NE 6.9 mph - N/A   Clear
10:53 PM 75.9 °F - 68.0 °F 76% 29.95 in 10.0 mi ENE 3.5 mph - N/A   Clear
11:53 PM 73.9 °F - 66.9 °F 79% 29.96 in 10.0 mi SE 3.5 mph - N/A   Clear